Explorer - northwestern half: Past 24 Hour Conditions

 

Fanny Island

12:00 PM PDT 30 July 2014
This table is a summary of hourly weather conditions for the past 24 hours.
Date / Time
(PDT)
Wind(knots) Conditions Visibility(km) Pressure(kPa) Air tempC) Relative humidity(%) Dew pointC)
30 July 2014
12:00 NW 17 N/A N/A 102.1 15 79 11
11:00 NW 17 N/A N/A 102.2 14 82 11
10:00 NW 15 N/A N/A 102.2 13 86 11
9:00 WNW 20 N/A N/A 102.2 13 84 11
8:00 WNW 24 N/A N/A 102.1 13 83 11
7:00 WNW 22 N/A N/A 102.1 13 85 11
6:00 WNW 21 N/A N/A 102.1 13 82 10
5:00 NW 16 N/A N/A 102.1 13 83 10
4:00 NW 18 N/A N/A 102.1 13 83 10
3:00 WNW 22 gust 27 N/A N/A 102.0 14 78 10
2:00 WNW 23 N/A N/A 102.0 14 79 10
1:00 WNW 23 gust 28 N/A N/A 102.0 14 78 10
0:00 WNW 24 gust 30 N/A N/A 102.0 14 77 10
29 July 2014
23:00 WNW 22 N/A N/A 102.0 14 75 10
22:00 WNW 25 gust 30 N/A N/A 102.0 15 75 10
21:00 WNW 27 gust 32 N/A N/A 101.9 15 74 10
20:00 WNW 28 N/A N/A 101.9 15 75 11
19:00 WNW 31 gust 37 N/A N/A 101.9 16 74 11
18:00 WNW 33 gust 38 N/A N/A 101.8 17 74 12
17:00 WNW 29 gust 34 N/A N/A 101.8 17 75 12
16:00 WNW 30 N/A N/A 101.8 16 81 12
15:00 WNW 27 N/A N/A 101.8 15 82 12
14:00 NW 22 N/A N/A 101.9 14 82 11
13:00 WNW 22 N/A N/A 101.9 15 77 11
12:00 WNW 16 N/A N/A 102.0 16 77 12
 
Map of Pacific - South Coast marine weather areas Tsawwassen Ferry Terminal South Nomad - 46036 Sentry Shoal - 46131 South Brooks - 46132 Halibut Bank - 46146 South Moresby - 46147 South Hecate Strait - 46185 West Sea Otter - 46204 La Perouse Bank - 46206 East Dellwood - 46207 Discovery Island Esquimalt Harbour Kelp Reefs Malahat Race Rocks Lightstation Saturna Island Sheringham Point University of Victoria Victoria Gonzales Victoria Int'l Airport Ballenas Islands Campbell River Airport Comox Airport Entrance Island Fanny Island Nanaimo Airport Port Hardy Airport Sisters Islets Estevan Point Sartine Island Solander Island Tofino Airport Grief Point Powell River Airport Sechelt Cape St.James Bella Bella Airport Bella Coola Airport Cathedral Point Herbert Island Point Atkinson Sand Heads Lightstation Vancouver Harbour Vancouver Int'l Airport West Vancouver Port Alberni Howe Sound - Pam Rocks Squamish Airport